Showing default

COSMOS 2294 (GLONASS), 23398

Orbit data source: Space-Track

COSMOS 2294 (GLONASS), 23398 is a payload satellite owned by VKS (CIS) in MEO that was launched on Sun, 20 Nov 1994 UTC via a PROTON-K/DM-2 launch vehicle from the Tyuratam Missile And Space Complex (TTMTR). Payload-class satellites include a variety of spacecraft equipped with specific instruments for various scientific and technological missions. These include communications satellites like Starlink; space stations such as the ISS; scientific satellites like the Hubble; Earth observation satellites from companies like Planet Labs, Umbra, and HawkEye 360; GPS; miniature CubeSats for education and research; and military/defense satellites.

Loading next visibility...
Identifier
23398, 1994-076C
Orbit
MEO
Country
Flag of CISCIS
Related business
Manufacturer
Polyot
Mission
Non-operational Defense Navigation
Bus & Motor
URAGAN, Unknown motor
Mass
1,300 kg wet, ~1,200 kg dry
Launch date (UTC)
1994-11-20 (32 years ago)
Launch vehicle
PROTON-K/DM-2
Launch site
Tyuratam Missile And Space Complex (TTMTR)
Object type
Payload
Rocket body
Debris
Shape & HBR
Cyl + 2 Pan, 4.2 m
Radar Cross Section
14.707 m², Large (>1 m²)

Expand to show TLE details & history
Last TLE update: 2 days ago

TLE from 2 days ago
0 COSMOS 2294 (GLONASS)
1 23398U 94076C   26171.14162740 -.00000044  00000-0  00000-0 0  9992
2 23398  64.8376  68.7119 0005417  30.7774 164.4552  2.13101755245742
Epoch: 2026-06-20T03:23Z
TLE epoch observation values (Epoch: 2026-06-20T03:23:56.607Z)
Latitude
-13.81218°
Longitude
-64.00558°
Altitude
19,146.74 km
Speed
3.951 km/s
True Right ascension
17h 01m 21s
True Declination
-13° 47' 24"
Sunlit
Object was in daylight at epoch
Visualization orbit readout
Latitude
Unknown
Longitude
Unknown
Altitude
Unknown
Speed
Unknown
Apparent Right ascension
Unknown
Apparent Declination
Unknown
Sunlit
N/A
Visualization observer readout
Local Sidereal Time
23:08:06
Azimuth
Unknown
Elevation
Unknown
Doppler factor
Unknown
Orbital elements
Apogee altitude
19,143.345 km
Perigee altitude
19,115.71 km
Semi-major axis
25,507.665 km
Eccentricity
0.00054
Inclination
64.8376°
RAAN
68.7119°
Arg. of periapsis
30.7774°
True anomaly
164.47182°
Mean anomaly
164.4552°
Eccentric anomaly
164.46351°
Mean motion
0.53277 °/min
Orbital period
675.72 mins
BSTAR
0
Loading maneuver chart data...
Computing Atmospheric mass density...
Loading historical data...
Loading historical data...
Loading historical data...
Loading historical data...
Loading historical data...
Loading historical data...
Loading historical data...

Documentation

Showing up to 5 results
|